Location: Boda
(47.1872°N, 9.5454°E)
Time: 09:51:42
(UTC+00:00)

Cosmos 407 Rocket - Pass Details

Date: 14 May 2021
Orbit: 743 x 787 km, 74.0° (Epoch: 16 June)

Event Time Altitude Azimuth Distance (km) Brightness Sun altitude
Rises 01:36:03 0° 336° (NNW) 3,282 7.2 -17.2°
Reaches altitude 10° 01:38:26 10° 335° (NNW) 2,353 6.4 -17.0°
Maximum altitude 01:43:48 79° 251° (WSW) 808 3.5 -16.5°
Drops below altitude 10° 01:49:08 10° 165° (SSE) 2,341 5.7 -15.9°
Enters shadow 01:49:17 - 165° (SSE) 2,399 5.7 -15.9°
